This demonstration page uses our WeatherBlox Daily Observations layout. Learn more.

Left ArrowRight Arrow

Hourly Observations for March 7, 2015

Temp ( °F °C ) Dew Point ( °F °C ) Humidity (%) Winds ( mph kmh ) Pressure ( in mb ) Visibility ( mi km ) Precip ( " mm )
12:16 am 00:16 Clear 21 -6 N/A 38 38 S 7 11 30.36 1028 10 16 N/A
12:36 am 00:36 Clear 21 -6 N/A 38 38 S 7 11 30.33 1027 10 16 N/A
12:55 am 00:55 Clear 21 -6 N/A 38 38 S 7 11 30.33 1027 10 16 N/A
1:16 am 01:16 Clear 21 -6 1 -17 42 42 S 7 11 30.33 1027 10 16 N/A
1:36 am 01:36 Clear 21 -6 1 -17 42 42 SSW 6 9 30.33 1027 10 16 N/A
1:55 am 01:55 Clear 21 -6 1 -17 42 42 S 8 13 30.33 1027 10 16 N/A
2:16 am 02:16 Clear 21 -6 3 -16 45 45 S 9 15 30.33 1027 10 16 N/A
2:36 am 02:36 Clear 21 -6 3 -16 45 45 S 8 13 30.30 1026 10 16 N/A
2:55 am 02:55 Clear 21 -6 3 -16 45 45 S 9 15 30.30 1026 10 16 N/A
3:16 am 03:16 Clear 21 -6 3 -16 45 45 SSW 8 13 30.30 1026 10 16 N/A
3:35 am 03:35 Clear 21 -6 3 -16 45 45 S 9 15 30.27 1025 10 16 N/A
3:55 am 03:55 Clear 21 -6 5 -15 49 49 SSW 7 11 30.27 1025 10 16 N/A
4:16 am 04:16 Clear 21 -6 5 -15 49 49 S 8 13 30.27 1025 10 16 N/A
4:35 am 04:35 Clear 21 -6 5 -15 49 49 S 12 19 30.27 1025 10 16 N/A
4:55 am 04:55 Clear 21 -6 5 -15 49 49 S 9 15 30.27 1025 10 16 N/A
5:16 am 05:16 Clear 21 -6 5 -15 49 49 S 8 13 30.27 1025 10 16 N/A
5:35 am 05:35 Clear 21 -6 7 -14 54 54 S 8 13 30.27 1025 10 16 N/A
5:55 am 05:55 Clear 21 -6 7 -14 54 54 S 8 13 30.27 1025 10 16 N/A
6:16 am 06:16 Clear 23 -5 9 -13 54 54 SSW 7 11 30.27 1025 10 16 N/A
6:35 am 06:35 Clear 23 -5 9 -13 54 54 SSW 9 15 30.27 1025 10 16 N/A
6:55 am 06:55 Clear 23 -5 9 -13 54 54 S 9 15 30.27 1025 10 16 N/A
7:16 am 07:16 Sunny 23 -5 9 -13 54 54 SSW 9 15 30.27 1025 10 16 N/A
7:35 am 07:35 Sunny 25 -4 10 -12 54 54 SSW 12 19 30.27 1025 10 16 N/A
7:55 am 07:55 Sunny 25 -4 10 -12 54 54 SSW 10 17 30.27 1025 10 16 N/A
8:16 am 08:16 Sunny 27 -3 10 -12 50 50 SSW 10 17 30.24 1024 10 16 N/A
8:35 am 08:35 Sunny 28 -2 12 -11 51 51 SSW 9 15 30.24 1024 10 16 N/A
8:55 am 08:55 Sunny 28 -2 12 -11 51 51 SSW 8 13 30.24 1024 10 16 N/A
9:16 am 09:16 Sunny 30 -1 12 -11 47 47 SSW 9 15 30.24 1024 10 16 N/A
9:35 am 09:35 Sunny 32 undefined 14 -10 47 47 SSW 13 20 30.24 1024 10 16 N/A
9:55 am 09:55 Sunny 32 undefined 14 -10 47 47 SW 14 22 30.24 1024 10 16 N/A
10:16 am 10:16 Sunny 34 1 14 -10 44 44 SSW 10 17 30.24 1024 10 16 N/A
10:35 am 10:35 Sunny 34 1 14 -10 44 44 SSW 9 15 30.24 1024 10 16 N/A
10:56 am 10:56 Sunny 36 2 16 -9 44 44 SW 10 17 30.24 1024 10 16 N/A
11:16 am 11:16 Sunny 37 3 14 -10 38 38 SW 14 22 30.24 1024 10 16 N/A
11:35 am 11:35 Sunny 37 3 16 -9 41 41 SW 16 26 30.24 1024 10 16 N/A
11:56 am 11:56 Sunny 39 4 16 -9 39 39 SW 13 20 30.24 1024 10 16 N/A
12:16 pm 12:16 Sunny 39 4 16 -9 39 39 SW 14 22 30.21 1023 10 16 N/A
12:35 pm 12:35 Sunny 41 5 16 -9 36 36 SW 14 22 30.18 1022 10 16 N/A
12:56 pm 12:56 Sunny 41 5 16 -9 36 36 SW 17 28 30.18 1022 10 16 N/A
1:16 pm 13:16 Sunny 41 5 16 -9 36 36 SW 14 22 30.15 1021 10 16 N/A
1:35 pm 13:35 Sunny 43 6 16 -9 34 34 SW 14 22 30.15 1021 10 16 N/A
1:56 pm 13:56 Sunny 43 6 16 -9 34 34 SW 16 26 30.15 1021 10 16 N/A
2:15 pm 14:15 Sunny 43 6 16 -9 34 34 SW 20 31 30.12 1020 10 16 N/A
2:36 pm 14:36 Sunny 43 6 16 -9 34 34 SW 17 28 30.12 1020 10 16 N/A
2:56 pm 14:56 Sunny 43 6 16 -9 34 34 SW 20 31 30.12 1020 10 16 N/A
3:15 pm 15:15 Sunny 43 6 18 -8 36 36 SW 20 31 30.12 1020 10 16 N/A
3:36 pm 15:36 Sunny 43 6 18 -8 36 36 SW 16 26 30.12 1020 10 16 N/A
3:55 pm 15:55 Sunny 43 6 18 -8 36 36 SW 15 24 30.12 1020 10 16 N/A
4:15 pm 16:15 Sunny 43 6 18 -8 36 36 WSW 18 30 30.12 1020 10 16 N/A
4:36 pm 16:36 Sunny 43 6 19 -7 39 39 SW 17 28 30.12 1020 10 16 N/A
4:55 pm 16:55 Sunny 43 6 18 -8 36 36 WSW 17 28 30.15 1021 10 16 N/A
5:16 pm 17:16 Sunny 41 5 19 -7 42 42 WSW 15 24 30.15 1021 10 16 N/A
5:36 pm 17:36 Sunny 39 4 21 -6 48 48 WSW 18 30 30.12 1020 10 16 N/A
5:55 pm 17:55 Sunny 41 5 19 -7 42 42 WSW 16 26 30.12 1020 10 16 N/A
6:16 pm 18:16 Sunny 41 5 19 -7 42 42 WSW 16 26 30.15 1021 10 16 N/A
6:36 pm 18:36 Sunny 41 5 19 -7 42 42 WSW 14 22 30.15 1021 10 16 N/A
6:55 pm 18:55 Clear 39 4 21 -6 48 48 WSW 12 19 30.15 1021 10 16 N/A
7:16 pm 19:16 Clear 39 4 21 -6 48 48 WSW 9 15 30.15 1021 10 16 N/A
7:36 pm 19:36 Clear 39 4 21 -6 48 48 SW 9 15 30.15 1021 10 16 N/A
7:55 pm 19:55 Clear 37 3 21 -6 52 52 SW 8 13 30.18 1022 10 16 N/A
8:16 pm 20:16 Clear 37 3 21 -6 52 52 SW 7 11 30.18 1022 10 16 N/A
8:36 pm 20:36 Clear 37 3 21 -6 52 52 SW 8 13 30.18 1022 10 16 N/A
8:55 pm 20:55 Clear 37 3 21 -6 52 52 WSW 12 19 30.21 1023 10 16 N/A
9:16 pm 21:16 Clear 37 3 21 -6 52 52 WSW 12 19 30.21 1023 10 16 N/A
9:36 pm 21:36 Clear 36 2 23 -5 60 60 W 10 17 30.21 1023 10 16 N/A
9:55 pm 21:55 Clear 36 2 23 -5 60 60 W 8 13 30.21 1023 10 16 N/A
10:16 pm 22:16 Clear 36 2 23 -5 60 60 W 10 17 30.21 1023 10 16 N/A
10:35 pm 22:35 Clear 36 2 23 -5 60 60 W 10 17 30.24 1024 10 16 N/A
10:55 pm 22:55 Clear 34 1 23 -5 65 65 W 9 15 30.24 1024 10 16 N/A
11:16 pm 23:16 Clear 34 1 23 -5 65 65 WSW 9 15 30.24 1024 10 16 N/A
11:35 pm 23:35 Clear 34 1 23 -5 65 65 W 8 13 30.24 1024 10 16 N/A
11:55 pm 23:55 Clear 32 undefined 23 -5 69 69 W 9 15 30.24 1024 10 16 N/A

Powered by AerisWeather